DLH39SY EDLW-LFMP

Flight info

Callsign DLH39SY
Flight time 1h 39m
Altitude 35000
Route GMH8Q GMH DCT COL DCT EMGOD DCT IDOVI DCT MAPIG DCT MAKOT DCT GTQ DCT MONCE DCT GIVOR DCT EPL DCT RLP DCT KASON DCT CACHI DCT MOU DCT BAKNO DCT PESAN DCT CFA DCT MINPA DCT MOKDI DCT MEN DCT BASLI DCT AFRIC DCT KELAM DCT BAMGO DCT LANET DCT
Aircraft B739/M-SDE2E3FGHIRWXY/LB1

Departure

Time 2026-04-29 12:27
Airport Dortmund Airport (EDLW)

Arrival

Time 2026-04-29 14:06
Airport Perpignan-Rivesaltes (Llabanère) Airport (LFMP)
Time Latitude Longitude Altitude Speed Heading
2026-04-29 11:57 51.51471 7.61123 435 ft 0 kts 145°
2026-04-29 12:18 51.51478 7.61115 418 ft 2 kts 145°
2026-04-29 12:18 51.51491 7.61101 424 ft 2 kts 132°
2026-04-29 12:18 51.51500 7.61080 419 ft 2 kts 112°
2026-04-29 12:19 51.51506 7.61055 419 ft 2 kts 89°
2026-04-29 12:19 51.51502 7.61030 421 ft 2 kts 68°
2026-04-29 12:19 51.51500 7.61022 422 ft 0 kts 65°
2026-04-29 12:21 51.51500 7.61023 422 ft 2 kts 63°
2026-04-29 12:21 51.51527 7.61050 420 ft 7 kts 12°
2026-04-29 12:22 51.51572 7.61008 426 ft 8 kts 285°
2026-04-29 12:22 51.51557 7.60889 426 ft 15 kts 256°
2026-04-29 12:22 51.51508 7.60810 418 ft 11 kts 232°
2026-04-29 12:22 51.51463 7.60688 425 ft 10 kts 239°
2026-04-29 12:23 51.51442 7.60628 423 ft 0 kts 241°
2026-04-29 12:23 51.51441 7.60625 424 ft 3 kts 241°
2026-04-29 12:23 51.51422 7.60571 427 ft 0 kts 240°
2026-04-29 12:24 51.51412 7.60544 421 ft 10 kts 240°
2026-04-29 12:24 51.51365 7.60407 421 ft 15 kts 244°
2026-04-29 12:25 51.51399 7.60273 424 ft 14 kts 328°
2026-04-29 12:25 51.51492 7.60266 420 ft 15 kts 49°
2026-04-29 12:25 51.51522 7.60344 422 ft 0 kts 59°
2026-04-29 12:26 51.51532 7.60370 413 ft 16 kts 60°
2026-04-29 12:26 51.51700 7.60851 416 ft 85 kts 60°
2026-04-29 12:26 51.52096 7.61991 408 ft 146 kts 63°
2026-04-29 12:27 51.52642 7.63506 916 ft 158 kts 58°
2026-04-29 12:27 51.53260 7.65082 1335 ft 179 kts 59°
2026-04-29 12:27 51.53962 7.66825 1532 ft 198 kts 58°
2026-04-29 12:27 51.54732 7.68755 1771 ft 212 kts 58°
2026-04-29 12:28 51.55539 7.70777 2098 ft 218 kts 59°
2026-04-29 12:28 51.56382 7.72811 2569 ft 219 kts 58°
2026-04-29 12:28 51.57210 7.74893 3096 ft 219 kts 64°
2026-04-29 12:28 51.57469 7.77236 3636 ft 218 kts 101°
2026-04-29 12:29 51.56659 7.79287 4133 ft 227 kts 140°
2026-04-29 12:29 51.55116 7.80040 4533 ft 243 kts 176°
2026-04-29 12:29 51.53385 7.80083 4775 ft 256 kts 171°
2026-04-29 12:29 51.51565 7.79777 5172 ft 272 kts 198°
2026-04-29 12:30 51.49820 7.78515 5328 ft 277 kts 199°
2026-04-29 12:30 51.48044 7.77340 5353 ft 275 kts 198°
2026-04-29 12:30 51.46256 7.76243 5348 ft 275 kts 197°
2026-04-29 12:30 51.44463 7.75182 5338 ft 274 kts 193°
2026-04-29 12:31 51.42626 7.74915 5357 ft 261 kts 164°
2026-04-29 12:31 51.40885 7.75697 5340 ft 260 kts 157°
2026-04-29 12:31 51.39186 7.76661 5346 ft 259 kts 155°
2026-04-29 12:31 51.37493 7.77657 5335 ft 259 kts 156°
2026-04-29 12:32 51.35799 7.78641 5331 ft 260 kts 156°
2026-04-29 12:32 51.34125 7.79614 5342 ft 259 kts 155°
2026-04-29 12:32 51.32432 7.80595 5449 ft 258 kts 157°
2026-04-29 12:32 51.30716 7.81559 5662 ft 264 kts 157°
2026-04-29 12:33 51.28967 7.82543 5850 ft 269 kts 156°
2026-04-29 12:33 51.27210 7.83528 6023 ft 266 kts 156°
2026-04-29 12:33 51.25471 7.84504 6167 ft 264 kts 156°
2026-04-29 12:33 51.23719 7.85490 6377 ft 274 kts 156°
2026-04-29 12:34 51.21861 7.86538 6595 ft 292 kts 156°
2026-04-29 12:34 51.19907 7.87637 6821 ft 310 kts 156°
2026-04-29 12:34 51.17774 7.88597 6966 ft 332 kts 171°
2026-04-29 12:34 51.15393 7.88065 7142 ft 353 kts 199°
2026-04-29 12:35 51.13163 7.86354 7357 ft 360 kts 204°
2026-04-29 12:35 51.10916 7.84547 7505 ft 362 kts 204°
2026-04-29 12:35 51.08672 7.82751 7677 ft 362 kts 204°
2026-04-29 12:35 51.06434 7.80981 7853 ft 369 kts 204°
2026-04-29 12:36 51.04096 7.79155 8161 ft 376 kts 203°
2026-04-29 12:36 51.01775 7.77350 9142 ft 364 kts 204°
2026-04-29 12:36 50.99537 7.75613 10253 ft 349 kts 204°
2026-04-29 12:36 50.97407 7.73968 11213 ft 338 kts 204°
2026-04-29 12:37 50.95251 7.72311 11447 ft 352 kts 204°
2026-04-29 12:37 50.93002 7.70587 11624 ft 366 kts 204°
2026-04-29 12:37 50.90674 7.68802 11916 ft 376 kts 204°
2026-04-29 12:37 50.88290 7.66971 12307 ft 382 kts 204°
2026-04-29 12:38 50.85903 7.65140 12740 ft 388 kts 204°
2026-04-29 12:38 50.83477 7.63280 13361 ft 387 kts 205°
2026-04-29 12:38 50.81050 7.61425 13998 ft 388 kts 204°
2026-04-29 12:38 50.78596 7.59573 14408 ft 394 kts 202°
2026-04-29 12:39 50.76002 7.58097 14796 ft 398 kts 194°
2026-04-29 12:39 50.73315 7.56898 15210 ft 403 kts 194°
2026-04-29 12:39 50.70609 7.55728 15795 ft 404 kts 194°
2026-04-29 12:39 50.67880 7.54543 16250 ft 408 kts 194°
2026-04-29 12:40 50.65138 7.53337 16725 ft 411 kts 194°
2026-04-29 12:40 50.62368 7.52103 17226 ft 414 kts 194°
2026-04-29 12:40 50.59583 7.50851 17674 ft 419 kts 194°
2026-04-29 12:40 50.56762 7.49578 18119 ft 422 kts 194°
2026-04-29 12:41 50.53926 7.48297 18570 ft 425 kts 194°
2026-04-29 12:41 50.51073 7.47008 18968 ft 429 kts 194°
2026-04-29 12:41 50.48235 7.45728 19406 ft 431 kts 194°
2026-04-29 12:41 50.45305 7.44408 19823 ft 433 kts 194°
2026-04-29 12:42 50.42402 7.43102 20241 ft 436 kts 194°
2026-04-29 12:42 50.39510 7.41802 20642 ft 439 kts 194°
2026-04-29 12:42 50.36570 7.40483 21068 ft 441 kts 194°
2026-04-29 12:42 50.33610 7.39157 21469 ft 443 kts 194°
2026-04-29 12:43 50.30634 7.37825 21864 ft 446 kts 194°
2026-04-29 12:43 50.27639 7.36486 22257 ft 448 kts 194°
2026-04-29 12:43 50.24632 7.35144 22654 ft 451 kts 194°
2026-04-29 12:43 50.21604 7.33794 23040 ft 453 kts 194°
2026-04-29 12:44 50.18547 7.32488 23423 ft 455 kts 191°
2026-04-29 12:44 50.15458 7.31447 23883 ft 454 kts 188°
2026-04-29 12:44 50.12386 7.30522 24192 ft 457 kts 188°
2026-04-29 12:44 50.09253 7.29565 24472 ft 460 kts 188°
2026-04-29 12:45 50.06111 7.28543 24778 ft 463 kts 190°
2026-04-29 12:45 50.02960 7.27336 25103 ft 466 kts 191°
2026-04-29 12:45 49.99809 7.26031 25407 ft 469 kts 192°
2026-04-29 12:45 49.96662 7.24701 25706 ft 471 kts 192°
2026-04-29 12:46 49.93491 7.23371 26034 ft 472 kts 192°
2026-04-29 12:46 49.90315 7.22058 26296 ft 473 kts 191°
2026-04-29 12:46 49.87161 7.20774 26568 ft 476 kts 191°
2026-04-29 12:46 49.83944 7.19477 26832 ft 478 kts 191°
2026-04-29 12:47 49.80720 7.18185 27094 ft 480 kts 191°
2026-04-29 12:47 49.77469 7.16886 27360 ft 483 kts 191°
2026-04-29 12:47 49.74206 7.15584 27633 ft 485 kts 191°
2026-04-29 12:47 49.70943 7.14281 27992 ft 485 kts 191°
2026-04-29 12:48 49.67667 7.12974 28292 ft 486 kts 191°
2026-04-29 12:48 49.64377 7.11664 28566 ft 488 kts 191°
2026-04-29 12:48 49.61084 7.10354 28906 ft 488 kts 191°
2026-04-29 12:48 49.57808 7.09051 29313 ft 486 kts 190°
2026-04-29 12:49 49.54536 7.07752 29711 ft 485 kts 190°
2026-04-29 12:49 49.51270 7.06459 30180 ft 481 kts 192°
2026-04-29 12:49 49.48056 7.05186 30835 ft 472 kts 193°
2026-04-29 12:49 49.44907 7.04076 31163 ft 471 kts 187°
2026-04-29 12:50 49.41642 7.03667 31255 ft 472 kts 178°
2026-04-29 12:50 49.38349 7.03724 31426 ft 474 kts 177°
2026-04-29 12:50 49.35047 7.03819 31699 ft 473 kts 177°
2026-04-29 12:50 49.31757 7.03885 31982 ft 473 kts 178°
2026-04-29 12:51 49.28459 7.03911 32158 ft 474 kts 181°
2026-04-29 12:51 49.25154 7.03910 32409 ft 474 kts 181°
2026-04-29 12:51 49.21903 7.03886 32774 ft 470 kts 184°
2026-04-29 12:51 49.18666 7.03057 32962 ft 467 kts 202°
2026-04-29 12:52 49.15808 7.00897 33058 ft 463 kts 218°
2026-04-29 12:52 49.13375 6.97635 33263 ft 457 kts 232°
2026-04-29 12:52 49.11328 6.93966 33597 ft 453 kts 233°
2026-04-29 12:52 49.09307 6.90299 33883 ft 450 kts 233°
2026-04-29 12:53 49.07323 6.86752 34513 ft 438 kts 233°
2026-04-29 12:53 49.05335 6.83258 34812 ft 436 kts 233°
2026-04-29 12:53 49.03329 6.79767 34829 ft 440 kts 232°
2026-04-29 12:54 48.99227 6.72772 34959 ft 445 kts 228°
2026-04-29 12:54 48.96871 6.69700 35098 ft 450 kts 218°
2026-04-29 12:54 48.94241 6.67079 35172 ft 452 kts 216°
2026-04-29 12:55 48.88907 6.61972 35143 ft 452 kts 217°
2026-04-29 12:55 48.83648 6.56876 35152 ft 445 kts 217°
2026-04-29 12:56 48.78487 6.51815 35147 ft 439 kts 217°
2026-04-29 12:56 48.73376 6.46801 35161 ft 437 kts 217°
2026-04-29 12:57 48.68291 6.41778 35166 ft 440 kts 219°
2026-04-29 12:57 48.63262 6.36415 35164 ft 444 kts 218°
2026-04-29 12:58 48.58049 6.31316 35166 ft 448 kts 217°
2026-04-29 12:58 48.52776 6.26246 35155 ft 450 kts 217°
2026-04-29 12:59 48.47505 6.21134 35119 ft 449 kts 217°
2026-04-29 12:59 48.42316 6.16093 35114 ft 438 kts 218°
2026-04-29 13:00 48.38086 6.11986 35119 ft 434 kts 218°
2026-04-29 13:00 48.32281 6.06034 35124 ft 432 kts 226°
2026-04-29 13:01 48.28939 6.00465 35121 ft 427 kts 237°
2026-04-29 13:01 48.25410 5.93317 35127 ft 430 kts 237°
2026-04-29 13:02 48.21813 5.86083 35124 ft 434 kts 237°
2026-04-29 13:02 48.18165 5.78835 35120 ft 436 kts 237°
2026-04-29 13:03 48.14490 5.71584 35105 ft 437 kts 237°
2026-04-29 13:03 48.10813 5.64353 35094 ft 435 kts 236°
2026-04-29 13:04 48.07144 5.57154 35082 ft 433 kts 236°
2026-04-29 13:04 48.03522 5.50061 35082 ft 430 kts 236°
2026-04-29 13:05 47.99889 5.42966 35082 ft 428 kts 236°
2026-04-29 13:05 47.96272 5.35917 35085 ft 426 kts 236°
2026-04-29 13:06 47.92684 5.28943 35088 ft 425 kts 236°
2026-04-29 13:06 47.88836 5.22210 35075 ft 430 kts 227°
2026-04-29 13:07 47.84410 5.16168 35077 ft 432 kts 226°
2026-04-29 13:07 47.79962 5.10139 35088 ft 432 kts 226°
2026-04-29 13:08 47.75559 5.04099 35072 ft 434 kts 226°
2026-04-29 13:08 47.71130 4.98003 35090 ft 435 kts 226°
2026-04-29 13:09 47.66683 4.91892 35076 ft 435 kts 226°
2026-04-29 13:09 47.62227 4.85784 35064 ft 435 kts 226°
2026-04-29 13:10 47.57787 4.79715 35056 ft 433 kts 226°
2026-04-29 13:10 47.53359 4.73673 35052 ft 432 kts 226°
2026-04-29 13:11 47.48947 4.67656 35055 ft 431 kts 226°
2026-04-29 13:11 47.44571 4.61697 35054 ft 429 kts 226°
2026-04-29 13:12 47.40181 4.55733 35053 ft 428 kts 225°
2026-04-29 13:12 47.35798 4.49792 35054 ft 427 kts 225°
2026-04-29 13:13 47.31424 4.43879 35051 ft 426 kts 225°
2026-04-29 13:13 47.27051 4.37980 35056 ft 425 kts 225°
2026-04-29 13:14 47.22690 4.32111 35041 ft 425 kts 225°
2026-04-29 13:14 47.18353 4.26287 35037 ft 425 kts 225°
2026-04-29 13:15 47.13985 4.20434 35033 ft 425 kts 225°
2026-04-29 13:15 47.09612 4.14587 35030 ft 425 kts 225°
2026-04-29 13:16 47.05226 4.08740 35026 ft 426 kts 225°
2026-04-29 13:16 47.00837 4.02911 35024 ft 425 kts 225°
2026-04-29 13:17 46.96455 3.97103 35015 ft 425 kts 225°
2026-04-29 13:17 46.92069 3.91298 35021 ft 424 kts 225°
2026-04-29 13:18 46.87691 3.85516 35017 ft 423 kts 225°
2026-04-29 13:18 46.83347 3.79794 35016 ft 423 kts 225°
2026-04-29 13:19 46.78983 3.74055 35016 ft 422 kts 224°
2026-04-29 13:19 46.74606 3.68314 35008 ft 422 kts 224°
2026-04-29 13:20 46.69912 3.63166 35013 ft 427 kts 211°
2026-04-29 13:20 46.64327 3.59954 35017 ft 435 kts 201°
2026-04-29 13:21 46.58552 3.57247 35011 ft 437 kts 201°
2026-04-29 13:21 46.52761 3.54451 34997 ft 439 kts 202°
2026-04-29 13:22 46.46974 3.51639 34989 ft 438 kts 201°
2026-04-29 13:22 46.41184 3.48864 34984 ft 437 kts 201°
2026-04-29 13:23 46.35464 3.46129 34973 ft 435 kts 201°
2026-04-29 13:23 46.29724 3.43386 34962 ft 433 kts 201°
2026-04-29 13:24 46.24010 3.40659 34963 ft 431 kts 201°
2026-04-29 13:24 46.18319 3.37950 34965 ft 430 kts 201°
2026-04-29 13:25 46.12652 3.35254 34970 ft 428 kts 201°
2026-04-29 13:25 46.04158 3.31218 34970 ft 429 kts 201°
2026-04-29 13:26 45.98520 3.28546 34973 ft 430 kts 201°
2026-04-29 13:26 45.92815 3.25849 34975 ft 432 kts 201°
2026-04-29 13:27 45.87077 3.23142 34972 ft 433 kts 201°
2026-04-29 13:27 45.81336 3.20440 34966 ft 435 kts 200°
2026-04-29 13:28 45.75385 3.18957 34969 ft 442 kts 184°
2026-04-29 13:28 45.69226 3.18873 34962 ft 442 kts 183°
2026-04-29 13:29 45.63074 3.18790 34969 ft 441 kts 184°
2026-04-29 13:29 45.56934 3.18658 34967 ft 440 kts 184°
2026-04-29 13:30 45.50810 3.18506 34962 ft 439 kts 184°
2026-04-29 13:30 45.44736 3.18352 34977 ft 438 kts 184°
2026-04-29 13:31 45.38653 3.18200 34976 ft 437 kts 184°
2026-04-29 13:31 45.32584 3.18049 34974 ft 436 kts 184°
2026-04-29 13:32 45.26526 3.17899 34975 ft 435 kts 184°
2026-04-29 13:32 45.20464 3.17749 34983 ft 435 kts 184°
2026-04-29 13:33 45.14418 3.17599 34975 ft 435 kts 183°
2026-04-29 13:33 45.08361 3.17425 34976 ft 435 kts 184°
2026-04-29 13:34 45.02353 3.17077 34992 ft 435 kts 185°
2026-04-29 13:34 44.96302 3.16730 34991 ft 436 kts 185°
2026-04-29 13:35 44.90232 3.16556 34992 ft 437 kts 183°
2026-04-29 13:35 44.84144 3.16512 34993 ft 437 kts 183°
2026-04-29 13:36 44.78065 3.16448 34993 ft 436 kts 183°
2026-04-29 13:36 44.72037 3.16362 34471 ft 434 kts 183°
2026-04-29 13:37 44.69027 3.16320 34009 ft 430 kts 183°
2026-04-29 13:37 44.66047 3.16277 33480 ft 427 kts 183°
2026-04-29 13:37 44.63089 3.16234 33015 ft 422 kts 183°
2026-04-29 13:37 44.60225 3.15990 33062 ft 401 kts 191°
2026-04-29 13:38 44.57570 3.15175 33163 ft 384 kts 197°
2026-04-29 13:38 44.54988 3.14229 33244 ft 383 kts 197°
2026-04-29 13:38 44.52411 3.13280 33437 ft 382 kts 197°
2026-04-29 13:38 44.49846 3.12343 33664 ft 380 kts 197°
2026-04-29 13:39 44.47286 3.11419 33847 ft 379 kts 197°
2026-04-29 13:39 44.44727 3.10503 33939 ft 381 kts 196°
2026-04-29 13:39 44.39550 3.08664 33962 ft 387 kts 197°
2026-04-29 13:40 44.34326 3.06824 34272 ft 384 kts 196°
2026-04-29 13:40 44.31748 3.05917 34523 ft 380 kts 196°
2026-04-29 13:40 44.29184 3.05014 34619 ft 379 kts 196°
2026-04-29 13:41 44.24032 3.03193 34694 ft 387 kts 196°
2026-04-29 13:41 44.21399 3.02270 34945 ft 385 kts 196°
2026-04-29 13:41 44.18792 3.01356 34967 ft 390 kts 195°
2026-04-29 13:42 44.16093 3.00409 34439 ft 410 kts 195°
2026-04-29 13:42 44.13305 2.99431 34058 ft 425 kts 195°
2026-04-29 13:42 44.10374 2.98404 33546 ft 439 kts 195°
2026-04-29 13:42 44.07383 2.97357 33055 ft 448 kts 195°
2026-04-29 13:43 44.04359 2.96297 32809 ft 445 kts 195°
2026-04-29 13:43 44.01407 2.95267 32698 ft 430 kts 195°
2026-04-29 13:43 43.98541 2.94265 32397 ft 421 kts 195°
2026-04-29 13:43 43.95707 2.93274 31839 ft 418 kts 195°
2026-04-29 13:44 43.92889 2.92292 31343 ft 414 kts 195°
2026-04-29 13:44 43.90132 2.91330 30852 ft 411 kts 195°
2026-04-29 13:44 43.87367 2.90366 30359 ft 409 kts 195°
2026-04-29 13:44 43.84587 2.89398 29864 ft 415 kts 195°
2026-04-29 13:45 43.81774 2.88419 29310 ft 417 kts 195°
2026-04-29 13:45 43.78949 2.87444 28745 ft 420 kts 194°
2026-04-29 13:45 43.76066 2.86809 28195 ft 419 kts 184°
2026-04-29 13:45 43.73161 2.86766 27685 ft 415 kts 181°
2026-04-29 13:46 43.70281 2.86803 27156 ft 412 kts 181°
2026-04-29 13:46 43.67428 2.86841 26652 ft 408 kts 180°
2026-04-29 13:46 43.64603 2.86868 26143 ft 405 kts 181°
2026-04-29 13:46 43.61833 2.86883 25656 ft 402 kts 180°
2026-04-29 13:47 43.59034 2.86889 25181 ft 399 kts 181°
2026-04-29 13:47 43.56269 2.86888 24708 ft 397 kts 181°
2026-04-29 13:47 43.53511 2.86887 24240 ft 394 kts 181°
2026-04-29 13:47 43.50777 2.86885 23771 ft 392 kts 181°
2026-04-29 13:48 43.48970 2.86883 23457 ft 389 kts 181°
2026-04-29 13:48 43.46282 2.86881 22900 ft 383 kts 180°
2026-04-29 13:48 43.43639 2.86880 22379 ft 376 kts 181°
2026-04-29 13:48 43.41051 2.86879 21834 ft 368 kts 181°
2026-04-29 13:49 43.38522 2.86878 21330 ft 360 kts 181°
2026-04-29 13:49 43.36038 2.86877 20817 ft 353 kts 182°
2026-04-29 13:49 43.33599 2.86875 20318 ft 347 kts 181°
2026-04-29 13:49 43.31197 2.86872 19854 ft 346 kts 181°
2026-04-29 13:50 43.28779 2.86870 19380 ft 347 kts 182°
2026-04-29 13:50 43.26359 2.86867 18906 ft 348 kts 182°
2026-04-29 13:50 43.23932 2.86865 18455 ft 349 kts 183°
2026-04-29 13:50 43.21532 2.86863 17946 ft 350 kts 182°
2026-04-29 13:51 43.19094 2.86861 17423 ft 350 kts 182°
2026-04-29 13:51 43.16687 2.86493 16862 ft 349 kts 199°
2026-04-29 13:51 43.14484 2.85200 16385 ft 340 kts 207°
2026-04-29 13:51 43.12383 2.83774 15869 ft 333 kts 207°
2026-04-29 13:52 43.10326 2.82385 15371 ft 327 kts 206°
2026-04-29 13:52 43.08292 2.81036 14885 ft 322 kts 206°
2026-04-29 13:52 43.06285 2.79716 14383 ft 317 kts 207°
2026-04-29 13:52 43.04516 2.77979 13902 ft 312 kts 225°
2026-04-29 13:53 43.03078 2.75747 13162 ft 314 kts 230°
2026-04-29 13:53 43.01697 2.73408 12390 ft 317 kts 231°
2026-04-29 13:53 43.00319 2.71039 11648 ft 319 kts 231°
2026-04-29 13:53 42.98934 2.68653 10910 ft 321 kts 231°
2026-04-29 13:54 42.97541 2.66259 10204 ft 322 kts 228°
2026-04-29 13:54 42.95819 2.64345 9436 ft 322 kts 207°
2026-04-29 13:54 42.93664 2.63529 8680 ft 324 kts 184°
2026-04-29 13:54 42.91430 2.63946 7925 ft 329 kts 161°
2026-04-29 13:55 42.89463 2.65552 7201 ft 333 kts 139°
2026-04-29 13:55 42.88101 2.68121 6608 ft 337 kts 117°
2026-04-29 13:55 42.87595 2.71157 6213 ft 334 kts 95°
2026-04-29 13:55 42.87987 2.74261 5789 ft 332 kts 70°
2026-04-29 13:56 42.89110 2.76972 5398 ft 326 kts 58°
2026-04-29 13:56 42.90398 2.79488 4953 ft 320 kts 57°
2026-04-29 13:56 42.91694 2.81910 4546 ft 311 kts 56°
2026-04-29 13:56 42.92973 2.84172 4492 ft 292 kts 46°
2026-04-29 13:57 42.94633 2.85609 4490 ft 276 kts 18°
2026-04-29 13:57 42.96458 2.85829 4488 ft 261 kts 347°
2026-04-29 13:57 42.98086 2.84966 4483 ft 244 kts 327°
2026-04-29 13:57 42.99592 2.83773 4488 ft 267 kts 327°
2026-04-29 13:58 43.01193 2.82430 4511 ft 271 kts 326°
2026-04-29 13:58 43.02796 2.81079 4527 ft 270 kts 326°
2026-04-29 13:58 43.04305 2.79580 4480 ft 265 kts 308°
2026-04-29 13:58 43.05151 2.77455 4494 ft 248 kts 276°
2026-04-29 13:59 43.05100 2.75212 4487 ft 228 kts 244°
2026-04-29 13:59 43.04362 2.73390 4485 ft 215 kts 230°
2026-04-29 13:59 43.03477 2.71791 4489 ft 205 kts 215°
2026-04-29 13:59 43.02263 2.71009 4491 ft 190 kts 189°
2026-04-29 14:00 43.00977 2.70711 4495 ft 185 kts 187°
2026-04-29 14:00 42.99717 2.70416 4484 ft 182 kts 187°
2026-04-29 14:00 42.98481 2.70121 4485 ft 178 kts 188°
2026-04-29 14:00 42.97258 2.69877 4495 ft 178 kts 187°
2026-04-29 14:01 42.96017 2.70004 4503 ft 182 kts 166°
2026-04-29 14:01 42.94817 2.70567 4493 ft 188 kts 152°
2026-04-29 14:01 42.93687 2.71519 4492 ft 194 kts 151°
2026-04-29 14:01 42.92527 2.72489 4508 ft 197 kts 153°
2026-04-29 14:02 42.91325 2.73434 4484 ft 202 kts 156°
2026-04-29 14:02 42.90082 2.74286 4477 ft 195 kts 157°
2026-04-29 14:02 42.88918 2.75106 4544 ft 180 kts 154°
2026-04-29 14:02 42.87792 2.75907 4171 ft 186 kts 160°
2026-04-29 14:03 42.86603 2.76583 3922 ft 182 kts 155°
2026-04-29 14:03 42.85535 2.77500 3623 ft 182 kts 145°
2026-04-29 14:03 42.84544 2.78585 3218 ft 180 kts 146°
2026-04-29 14:03 42.83501 2.79449 2795 ft 171 kts 152°
2026-04-29 14:04 42.82456 2.80133 2336 ft 165 kts 152°
2026-04-29 14:04 42.81522 2.80871 2305 ft 149 kts 145°
2026-04-29 14:04 42.80675 2.81704 1990 ft 153 kts 144°
2026-04-29 14:04 42.79762 2.82475 1608 ft 155 kts 147°
2026-04-29 14:05 42.78859 2.83211 1267 ft 149 kts 145°
2026-04-29 14:05 42.78002 2.83959 923 ft 144 kts 143°
2026-04-29 14:05 42.77136 2.84705 642 ft 150 kts 144°
2026-04-29 14:05 42.76261 2.85439 452 ft 148 kts 143°
2026-04-29 14:06 42.75405 2.86188 205 ft 143 kts 144°
2026-04-29 14:06 42.74628 2.86839 152 ft 115 kts 151°
2026-04-29 14:06 42.74069 2.87300 149 ft 72 kts 148°
2026-04-29 14:06 42.73769 2.87550 151 ft 30 kts 148°
2026-04-29 14:07 42.73643 2.87587 150 ft 17 kts 217°
2026-04-29 14:07 42.73617 2.87541 149 ft 0 kts 237°
2026-04-29 14:07 42.73616 2.87538 149 ft 3 kts 237°
2026-04-29 14:08 42.73610 2.87464 149 ft 13 kts 293°
2026-04-29 14:08 42.73705 2.87362 149 ft 22 kts 328°
2026-04-29 14:08 42.73854 2.87239 149 ft 27 kts 327°
2026-04-29 14:08 42.73963 2.87139 149 ft 14 kts 312°
2026-04-29 14:09 42.73968 2.87017 149 ft 11 kts 260°
2026-04-29 14:09 42.73965 2.87001 149 ft 0 kts 255°
2026-04-29 14:09 42.73961 2.86992 149 ft 3 kts 226°
2026-04-29 14:10 42.73931 2.86997 149 ft 6 kts 170°
2026-04-29 14:10 42.73917 2.87000 149 ft 0 kts 169°
2026-04-29 14:10 42.73913 2.87001 149 ft 2 kts 169°
2026-04-29 14:10 42.73912 2.87002 149 ft 0 kts 169°